#timestamp,LO_Frequency,Hit 
1505232015.9,286047006.5,N
1505232035.7,286047002.9,N
1505232055.6,286047007.0,N
1505232075.4,286047004.7,N
1505232095.2,286047006.9,N
1505232115.1,286047005.1,N
1505232116.0,286047005.1,N
1505232135.8,286047007.6,N
1505232155.6,286047003.8,N
1505232175.5,286047001.3,N
1505232195.3,286047001.6,N
1505232215.1,286047002.4,N
1505232235.9,286047002.7,N
1505232255.7,286047004.1,N
1505232275.5,286047005.9,N
1505232295.3,286047003.1,N
1505232315.2,286047002.3,N
1505232335.0,286047000.6,N
1505232335.9,286047000.6,N
1505232355.7,286046998.8,N
1505232375.6,286046998.5,N
1505232395.4,286046998.8,N
1505232415.2,286046994.9,N
1505232435.1,286046997.8,N
1505232436.0,286046997.8,N
1505232455.8,286046995.4,N
1505232475.6,286046995.7,N
1505232495.5,286046997.9,N
1505232515.3,286046996.8,N
1505232535.1,286047000.3,N
1505232555.9,286046999.3,N
1505232575.7,286046996.6,N
1505232595.5,286046996.1,N
1505232615.4,286046993.2,N
1505232635.2,286046991.6,N
1505232655.0,286046990.8,N
1505232655.9,286046990.8,N
1505232675.8,286046994.3,N
1505232695.6,286046996.1,N
1505232715.4,286046994.9,N
1505232735.3,286046994.9,N
1505232755.1,286046996.2,N
1505232756.0,286046996.2,N
1505232775.8,286046993.5,N
1505232795.6,286046995.6,N
1505232815.5,286046990.1,P
1505232835.3,286046993.1,N
1505232855.2,286046989.3,P
1505232875.9,286046996.1,N
1505232895.7,286046996.2,N
1505232915.6,286046996.3,N
1505232935.4,286046997.9,N
1505232955.2,286046992.9,N
1505232975.0,286046993.0,N
1505232975.9,286046993.0,N
1505232995.8,286046994.7,N
1505233015.6,286046990.5,P
1505233035.5,286046996.9,N
1505233055.3,286046995.2,N
1505233075.1,286046992.9,P
1505233095.9,286046997.7,P
1505233115.7,286046997.3,N
1505233135.5,286047000.3,N
1505233155.3,286047000.5,N
1505233175.2,286047001.6,N
1505233195.0,286047000.3,N
1505233195.9,286047000.3,N
1505233215.7,286047000.1,N
1505233235.6,286046998.7,N
1505233255.4,286046999.6,N
1505233275.2,286046998.4,N
1505233295.1,286046994.9,N
1505233296.0,286046994.9,N
1505233315.8,286046994.3,N
1505233335.6,286046993.4,N
1505233355.5,286046994.9,N
1505233375.3,286046996.6,N
1505233395.1,286046996.3,N
1505233415.9,286046993.2,N
1505233435.7,286046990.0,P
1505233455.5,286046991.9,N
1505233475.4,286046992.8,N
1505233495.2,286046990.2,P
1505233515.0,286046997.2,N
1505233515.9,286046997.2,N
1505233535.8,286046999.0,N
1505233555.6,286047001.9,N
1505233575.4,286047001.6,N
1505233595.3,286046998.7,N
1505233615.1,286047001.1,N
1505233616.0,286047001.1,N
1505233635.8,286047000.2,N
1505233655.7,286046995.6,N
1505233675.5,286046993.3,N
1505233695.3,286046995.7,N
1505233715.1,286046996.4,N
1505233735.9,286047002.3,N
1505233755.7,286047005.8,N
1505233775.5,286047002.4,N
1505233795.4,286047000.1,N
1505233815.2,286047000.2,N
1505233835.0,286046999.3,N
1505233835.9,286046999.3,N
1505233855.8,286046998.6,N
1505233875.6,286046998.6,N
1505233895.4,286047000.5,N
1505233915.3,286047002.3,N
1505233935.1,286047003.8,N
1505233936.0,286047003.8,N
1505233955.8,286047005.3,N
1505233975.7,286047005.7,N
1505233995.5,286047007.1,N
1505234015.4,286047006.3,N
1505234035.3,286047007.1,N
1505234055.1,286047010.3,N
1505234075.8,286047007.6,N
1505234095.7,286047010.5,N
1505234115.5,286047010.8,N
1505234135.3,286047010.4,N
1505234155.2,286047006.7,N
1505234175.9,286047006.8,N
1505234195.7,286047006.9,N
1505234215.6,286047005.2,N
1505234235.4,286047006.7,N
1505234255.2,286047004.5,N
1505234275.0,286047010.8,N
1505234276.0,286047010.8,N
1505234295.8,286047007.3,N
1505234315.6,286047005.4,N
1505234335.4,286047007.5,N
1505234355.3,286047006.7,N
1505234375.1,286047004.7,N
1505234395.8,286047004.3,N
1505234415.7,286047005.8,N
1505234435.5,286047007.2,N
1505234455.3,286047006.0,N
1505234475.2,286047002.7,N
1505234495.9,286046999.7,N
1505234515.7,286047001.9,N
1505234535.6,286046998.1,N
1505234555.4,286046992.4,N
1505234575.2,286046987.9,P
1505234595.1,286046981.9,N
1505234596.0,286046981.9,N
1505234615.8,286046978.3,N
1505234635.6,286046976.1,N
1505234655.5,286046976.8,N
1505234675.3,286046979.2,N
1505234695.1,286046979.8,N
1505234715.9,286046978.2,N
1505234735.7,286046977.7,N
1505234755.5,286046978.5,N
1505234775.4,286046970.9,P
1505234795.2,286046991.1,N
1505234815.0,286046988.6,N
1505234815.9,286046988.6,N
1505234835.8,286046987.7,N
1505234855.6,286046987.1,N
1505234875.4,286046991.3,N
1505234895.2,286046991.5,N
1505234915.1,286046989.4,N
1505234916.0,286046989.4,N
1505234935.8,286046988.2,N
1505234955.6,286046989.5,N
1505234975.5,286046991.2,N
1505234995.3,286046989.7,N
1505235015.1,286046989.6,N
1505235035.9,286046987.3,N
1505235055.7,286046990.4,N
1505235075.5,286046990.8,N
1505235095.4,286046991.4,N
1505235115.2,286046986.1,P
1505235135.0,286046996.4,P
1505235135.9,286046996.4,N
1505235155.8,286046993.3,N
1505235175.6,286046993.5,N
1505235195.4,286046996.3,N
1505235215.3,286046995.5,N
1505235235.1,286046996.4,N
1505235236.0,286046996.4,N
1505235255.8,286046996.3,N
1505235275.7,286046993.5,N
1505235295.5,286046995.5,N
1505235315.3,286046994.1,N
1505235335.2,286046996.8,N
1505235355.9,286046999.3,N
1505235375.7,286046999.0,N
1505235395.5,286047000.1,N
1505235415.4,286047001.9,N
1505235435.2,286046999.7,N
1505235455.0,286047002.1,N
1505235455.9,286047002.1,N
1505235475.8,286046998.4,N
1505235495.6,286046994.1,N
1505235515.4,286046998.4,N
1505235535.3,286047005.7,N
1505235555.1,286047011.9,N
1505235556.0,286047011.9,N
1505235575.8,286047015.4,N
1505235595.7,286047019.6,P
